Flag for Canada Weather past 2 weeks in Pictou County, Nova Scotia, Canada

Now
34 °F

Chilly.


Feels Like: 30 °F
Forecast: 31 / 44 °F
Wind: 5 mph from East

Location: Caribou Point


UV Index: 3 (Moderate)

Visibility: N/A


Pressure: 30.09 "Hg

Humidity: 98%

Dew point: 33 °F

Location of Pictou CountyLocation

Historic Weather in Pictou County

°F

Pictou County temperature yesterday

Maximum temperature yesterday: 41 °F (at 8:00 PM)
Minimum temperature yesterday: 29 °F (at 4:00 AM)
Average temperature yesterday: 34 °F

Past Weeks' High & Low Weather Summary

 TemperatureHumidityPressure
High66 °F (Apr 15, 3:00 PM)100% (Apr 4, 6:00 AM)30.84 "Hg (Apr 4, 6:00 AM)
Low27 °F (Apr 5, 3:00 AM)35% (Apr 10, 7:00 PM)29.24 "Hg (Apr 9, 5:00 AM)
Average39 °F79%30.04 "Hg
* Reported Apr 4 6:00 AM — Apr 19 6:00 AM, Pictou County, Weather by CustomWeather, © 2014

Note: Actual official high and low records may vary slightly from our data, if they occured in-between our weather recording intervals... More about our weather records

Advertising

Historic Weather Conditions — Data for Previous 24 hours

 ConditionsComfort  
Time TempWeatherWind HumidityBarometerVisibility
6:00 AM
Apr 19
34 °FChilly.6 mph97%30.11 "HgN/A
5:00 AM34 °FChilly.1 mph96%30.14 "HgN/A
4:00 AM35 °FChilly.2 mph88%30.18 "HgN/A
3:00 AM35 °FChilly.5 mph87%30.19 "HgN/A
2:00 AM35 °FChilly.8 mph86%30.21 "HgN/A
1:00 AM35 °FChilly.10 mph87%30.24 "HgN/A
12:00 AM35 °FChilly.12 mph87%30.27 "HgN/A
11:00 PM
Apr 18
34 °FChilly.13 mph81%30.30 "HgN/A
10:00 PM36 °FChilly.13 mph67%30.32 "HgN/A
9:00 PM39 °FChilly.15 mph56%30.35 "HgN/A
8:00 PM41 °FQuite cool.13 mph55%30.36 "HgN/A
7:00 PM38 °FChilly.14 mph79%30.36 "HgN/A
6:00 PM36 °FChilly.14 mph79%30.39 "HgN/A
5:00 PM37 °FChilly.17 mph80%30.44 "HgN/A
4:00 PM37 °FChilly.16 mph79%30.47 "HgN/A
3:00 PM37 °FChilly.15 mph75%30.50 "HgN/A
2:00 PM37 °FChilly.13 mph77%30.51 "HgN/A
1:00 PM37 °FChilly.9 mph70%30.55 "HgN/A
12:00 PM33 °FChilly.12 mph69%30.60 "HgN/A
11:00 AM34 °FChilly.10 mph67%30.65 "HgN/A
10:00 AM33 °FChilly.9 mph69%30.68 "HgN/A
9:00 AM31 °FChilly.10 mph79%30.69 "HgN/A
8:00 AM31 °FChilly.12 mph73%30.70 "HgN/A
7:00 AM31 °FChilly.12 mph75%30.71 "HgN/A
Weather by CustomWeather, © 2014

See weather overview